SUPERVIEW NEO-2 02 (53130 NORAD) Tracking and Keplerian Element Data

This shows tracking and keplerian element data for the satellite.

Feedback or suggestion? Click here.




ElementValue
Catalog53130
NameSUPERVIEW NEO-2 02
Epoch Orbit1116
Epoch Day270.17263076
Epoch Year2022
RAAN277.1954
Inclination97.3867
Eccentricity0.0012545
Argument of Perigee25.5278
Mean Anonmoly38.7024
Mean Motion15.25098208
Decay Rate4.942E-05
L11 53130U 22082C 22270.17263076 .00004942 00000+0 19994-3 0 9994
L22 53130 97.3867 277.1954 0012545 25.5278 38.7024 15.25098208 11168

Live tracking and technical data element details for SUPERVIEW NEO-2 02 (NORAD 53130). SUPERVIEW NEO-2 02 can be tracked NOW for your location showing map with azimuth and elevation plus other details from your city location.

Track the satellite on the map from your city or location and see movement details for azimuth, elevation, latitude, longitude, range, height, and movement on the map or in text.







IsCatalogInMostPopularTable: catalog: 53130, numindb: 7
Update: records affected: 1



GetName: 53130 SUPERVIEW NEO-2 02

Hit Count: updated at: Thu, 29 Sep 2022 10:48:46 GMT